Location: Rometta
(44.2000°N, 10.0500°E)
Time: 16:49:24
(UTC+00:00)

ATLAS 5 CENTAUR R/B - Pass Details

Date: 20 January 2021
Orbit: 511 x 1147 km, 63.3° (Epoch: 16 February)

Event Time Altitude Azimuth Distance (km) Brightness Sun altitude
Rises 18:41:07 0° 280° (W) 2,745 6.1 -26.2°
Reaches altitude 10° 18:44:30 10° 311° (NW) 1,950 4.7 -26.8°
Maximum altitude 18:46:25 13° 338° (NNW) 1,851 4.2 -27.1°
Enters shadow 18:47:30 12° 352° (N) 1,941 4.1 -27.3°
